Regional Weather Roundup
Issued by NWS Austin/San Antonio, TX

Home | Current Version | Previous Version | Text Only | Print | Product List | Glossary On
Versions: 1 2 3 4 5 6 7 8 9 10 11 12 13 14 15 16 17 18 19 20 21 22 23 24 25 26 27 28 29 30 31 32 33 34 35 36 37 38 39 40 41 42 43 44 45 46 47 48 49 50
000
ASUS44 KEWX 191710
RWREWX
SOUTH TEXAS REGIONAL WEATHER ROUNDUP
NATIONAL WEATHER SERVICE AUSTIN/SAN ANTONIO TX
1100 AM CST SUN NOV 19 2017

NOTE: "FAIR" INDICATED FEW OR NO CLOUDS BELOW 12,000 FEET WITH NO
SIGNIFICANT WEATHER AND/OR OBSTRUCTIONS TO VISIBILITY.

* - THESE STATIONS ARE NOT NWS OR FAA STATIONS...AND ARE NOT SUBJECT
    TO NWS AND FAA QUALITY CONTROL.

TXZ171-172-183>190-191800-
TEXAS HILL COUNTRY AND EDWARDS PLATEAU

CITY           SKY/WX    TMP DP  RH WIND       PRES   REMARKS
JUNCTION       MOSUNNY   53  29  39 SE3       30.40F
*LLANO         MOSUNNY   57  30  35 NE6       30.43F
BURNET           N/A     57  26  30 NE7G18    30.41F
*HORSESHOE BAY SUNNY     57  34  41 N3        30.40F
*KERRVILLE     MOSUNNY   56  27  32 NE8       30.40F
*FREDERICKSBRG SUNNY     55  24  30 NE5       30.40F
*ROCKSPRINGS   NOT AVBL
*BOERNE STAGE  SUNNY     55  27  33 NE7       30.40F
*CASTROVILLE   SUNNY     60  25  25 NE12      30.41F
HONDO          MOSUNNY   63  27  25 NE9       30.40F
*UVALDE        MOSUNNY   58  28  30 NE8       30.42F
DEL RIO        SUNNY     58  30  34 VRB6      30.41F
LAUGHLIN AFB   PTSUNNY   58  27  30 E8        30.40F
CARRIZO SPRGS  SUNNY     59  30  33 NE8       30.42F
*EAGLE PASS    SUNNY     59  27  29 VRB6      30.42F
$$

TXZ173-191>194-202-209-217>225-228-191800-
CENTRAL AND SOUTH CENTRAL TEXAS

CITY           SKY/WX    TMP DP  RH WIND       PRES   REMARKS
GEORGETOWN     SUNNY     60  29  30 NE9G17    30.40F
AUSTIN/BERGSTM PTSUNNY   59  32  36 NE10      30.39S
AUSTIN/MABRY   SUNNY     61  32  33 MISG      30.40F
*AUSTIN/EXEC   SUNNY     59  32  36 NE9       30.39F
*LAGO VISTA    MOSUNNY   59  30  33 E8        30.39F
SAN MARCOS     MOSUNNY   62  31  31 NE12      30.40F
NEW BRAUNFELS  SUNNY     61  28  28 NE13      30.38F
RANDOLPH AFB   SUNNY     60  28  29 NE7G18    30.39F
PT SAN ANTONIO SUNNY     61  28  29 NE6G17    30.38F
SAN ANTONIO    PTSUNNY   60  27  28 NE10G21   30.40F
STINSON FIELD  SUNNY     63  30  28 NE12G20   30.38F
*LA GRANGE     SUNNY     62  33  34 NE9       30.36F
*GIDDINGS      SUNNY     59  32  36 NE7       30.39F
*GONZALES      SUNNY     62  34  35 N9G17     30.38S
$$

TXZ163>164-176>182-195>201-210>213-226-227-235-191800-
SOUTHEAST TEXAS

CITY           SKY/WX    TMP DP  RH WIND       PRES   REMARKS
COLLEGE STN    SUNNY     61  31  32 N13       30.37F
*BRYAN         SUNNY     60  31  33 NE13G18   30.38F
*CALDWELL      SUNNY     60  29  31 NE8G17    30.38F
*CROCKETT        N/A    N/A N/A N/A MISG        N/A
*BRENHAM       SUNNY     61  34  36 N6        30.37F
HUNTSVILLE     SUNNY     60  33  36 VRB5      30.35F
CONROE         SUNNY     60  33  36 N10G20    30.34F
HOUSTON BUSH   MOSUNNY   62  32  32 NE18      30.34F
HOUSTON HOBBY  MOSUNNY   61  33  35 NE16G22   30.33F
*HOUSTON SW AP SUNNY     60  32  34 NE14      30.35F
PEARLAND       SUNNY     62  31  31 NE14      30.35F
HOUSTON HOOKS  SUNNY     61  33  35 N10G17    30.35F
ELLINGTON FLD  MOSUNNY   59  36  41 N16       30.36
SUGAR LAND     SUNNY     62  31  31 NE15G22   30.34F
*HOUSTON EXEC  SUNNY     59  32  36 N16G25    30.36F
*CLEVELAND MUN SUNNY     60  27  28 NE8       30.34F
*WHARTON       SUNNY     60  30  32 NE13G20   30.36F
*COLUMBUS      FAIR      60  27  28 N12G20    30.37F
*EAGLE LAKE    SUNNY     62  33  33 NE16G23   30.35F
$$

TXZ214>216-236>238-191800-
THE UPPER TEXAS COAST

CITY           SKY/WX    TMP DP  RH WIND       PRES   REMARKS
*ORANGE        SUNNY     58  31  35 NE14G20   30.32F
PORT ARTHUR    SUNNY     60  33  36 NE14G21   30.30F
GALVESTON      SUNNY     61  35  37 N18G28    30.33F
ANGLETON       SUNNY     62  28  27 NE16      30.33F
*BAY CITY      SUNNY     62  31  32 N14G23    30.33F
PALACIOS       SUNNY     62  34  35 NE16G25   30.34F
$$

TXZ229>234-239>247-191800-
TEXAS COASTAL BEND AND RIO GRANDE PLAINS

CITY           SKY/WX    TMP DP  RH WIND       PRES   REMARKS
VICTORIA       SUNNY     62  31  31 NE17      30.37F
*BEEVILLE      SUNNY     62  31  31 NE13G21   30.38F
ROCKPORT       SUNNY     62  36  37 NE15G24   30.36F
*PORT ARANSAS  NOT AVBL
*PORT LAVACA   NOT AVBL
*INGLESIDE     NOT AVBL
CORPUS CHRISTI MOSUNNY   63  32  31 NE23G29   30.36F
CORPUS NAS     SUNNY     64  39  39 NE25G31   30.35F
*ROBSTOWN      SUNNY     61  33  34 NE13G18   30.37F
ALICE          SUNNY     63  29  27 NE17G24   30.37F
KINGSVILLE NAS SUNNY     64  34  32 N18G29    30.36F
COTULLA        SUNNY     62  26  25 E9        30.40F
*FAITH RANCH   SUNNY     59  30  33 VRB6G13   30.41F
LAREDO         SUNNY     61  31  32 NE8       30.41F
$$

TXZ248>255-191800-
DEEP SOUTH TEXAS

CITY           SKY/WX    TMP DP  RH WIND       PRES   REMARKS
BROWNSVILLE    SUNNY     69  49  48 N17G24    30.31F
PORT ISABEL    MOSUNNY   68  50  52 N20G29    30.30S
*SOUTH PADRE   NOT AVBL
HARLINGEN      SUNNY     66  47  50 N20G28    30.32F
*HEBBRONVILLE  SUNNY     59  28  30 NE13      30.38F
MCALLEN        SUNNY     64  40  41 N14G20    30.37F
*WESLACO       SUNNY     61  40  45 N13G20    30.35F
FALFURRIAS     SUNNY     63  29  28 NE15      30.36F
EDINBURG       SUNNY     65  35  33 N8G16     30.37F
*ZAPATA        SUNNY     63  29  27 N7        30.39F
$$

TXZ213>215-236>238-242>244-246-247-251-254-255-191800-
CMAN STATIONS

STATION/POSITION TIME  TEMP    WIND        PRES    WAVE
                       AIR SEA DIR/SP/G            HT/PER
                 (UTC) (F)     (DEG/KT/KT) (MB)    (FT/S)
SABINE PASS      1642      69   40/ 16/ 21 1027.7
SEA RIM ST PARK  1700   58      40/ 14/ 19 1026.6
NORTH JETTY/GLS  1642      67   20/ 20/ 24 1026.0
EAGLE POINT      1642      65   40/ 16/ 20 1027.3
MORGANS POINT    1642      70   40/ 11/ 17 1027.2
PORT O`CONNOR    1642           30/ 16/ 20 1027.4
PORT ARANSAS     1700   58 71   20/ 20/ 25 1027.5
MALAQUITE BEACH  1642   58 70   10/ 21/ 26 1027.5
BAFFIN BAY       1642      66   10/ 19/ 24 1028.2
PORT ISABEL      1642   65 74  350/ 14/ 21 1025.5
$$




USA.gov is the U.S. government's official web portal to all federal, state and local government web resources and services.